Regional Weather Roundup
Issued by NWS

Home | Current Version | Previous Version | Text Only | Print | Product List | Glossary Off
Versions: 1 2 3 4 5 6 7 8 9 10 11 12 13 14 15 16 17 18 19 20 21 22 23 24 25 26 27 28 29 30 31 32 33 34 35 36 37 38 39 40 41 42 43 44 45 46 47 48 49 50

000
ASUS43 KBIS 260810
RWRND

NORTH DAKOTA REGIONAL WEATHER ROUNDUP
NATIONAL WEATHER SERVICE BISMARCK ND
300 AM CDT SAT JUL 26 2014

NOTE: "FAIR" INDICATES FEW OR NO CLOUDS BELOW 12,000 FEET WITH NO
SIGNIFICANT WEATHER AND/OR OBSTRUCTIONS TO VISIBILITY.


NDZ001>003-009>011-017-260900-
NORTHWEST NORTH DAKOTA

CITY           SKY/WX    TMP DP  RH WIND       PRES   REMARKS
WILLISTON      CLEAR     56  50  80 SW5       29.84S
MINOT          CLEAR     58  51  78 SW3       29.78F
MINOT AFB      CLEAR     56  56  99 SW5       29.77F
$$

NDZ018>021-031>035-040>046-260900-
SOUTHWEST NORTH DAKOTA

CITY           SKY/WX    TMP DP  RH WIND       PRES   REMARKS
BISMARCK       CLEAR     62  53  72 W6        29.82R
DICKINSON      CLEAR     57  47  69 NW10      29.87R
GARRISON         N/A     59  55  87 NW10      29.80R
HETTINGER ARPT CLEAR     56  49  77 CALM      29.88S
$$

NDZ004>008-012>016-024-026-027-054-260900-
NORTHEAST NORTH DAKOTA

CITY           SKY/WX    TMP DP  RH WIND       PRES   REMARKS
GRAND FORKS    CLEAR     60  55  83 S8        29.76F
GRND FRKS AFB  CLEAR     58  58  99 S8        29.76F
DEVILS LAKE    CLEAR     66  54  63 S13       29.75F
$$

NDZ022-023-025-028>030-036>039-047>053-260900-
SOUTHEAST NORTH DAKOTA

CITY           SKY/WX    TMP DP  RH WIND       PRES   REMARKS
FARGO          CLEAR     58  54  86 CALM      29.79F
JAMESTOWN      CLEAR     58  55  90 S3        29.81F
$$




USA.gov is the U.S. government's official web portal to all federal, state and local government web resources and services.